Date,Time,Temp,SpCond,DO%,DOConc,Depth,pH,Flow
2003-05-03,11:30:40,15.75,0.477,51.4,5.09,0.888,6.44,NA
2003-05-03,11:45:40,15.9,0.475,51.7,5.1,0.887,6.45,NA
2003-05-03,12:00:40,16.07,0.474,52.3,5.15,0.887,6.45,NA
2003-05-03,12:15:40,16.23,0.473,53,5.2,0.887,6.46,NA
2003-05-03,12:30:40,16.41,0.473,53.8,5.26,0.886,6.46,NA
2003-05-03,12:45:40,16.59,0.473,54.8,5.33,0.887,6.46,NA
2003-05-03,13:00:40,16.76,0.472,55.7,5.4,0.885,6.47,NA
2003-05-03,13:15:40,16.95,0.472,56.8,5.49,0.885,6.47,NA
2003-05-03,13:30:40,17.13,0.472,57.7,5.56,0.885,6.48,NA
2003-05-03,13:45:40,17.29,0.472,58.7,5.63,0.884,6.48,NA
2003-05-03,14:00:40,17.46,0.472,59.7,5.71,0.884,6.48,NA
2003-05-03,14:15:40,17.62,0.472,60.6,5.78,0.883,6.49,NA
2003-05-03,14:30:40,17.76,0.472,61.6,5.85,0.883,6.49,NA
2003-05-03,14:45:40,17.9,0.472,62.5,5.92,0.882,6.5,NA
2003-05-03,15:00:40,18.04,0.472,63.3,5.98,0.881,6.5,NA
2003-05-03,15:15:40,18.15,0.472,64.2,6.05,0.881,6.5,NA
2003-05-03,15:30:40,18.25,0.472,65,6.11,0.88,6.51,NA
2003-05-03,15:45:40,18.34,0.472,65.6,6.16,0.88,6.51,NA
2003-05-03,16:00:40,18.42,0.472,66.3,6.22,0.879,6.52,NA
2003-05-03,16:15:40,18.47,0.472,66.9,6.26,0.879,6.52,NA
2003-05-03,16:30:40,18.51,0.472,67.4,6.31,0.878,6.52,NA
2003-05-03,16:45:40,18.54,0.473,67.9,6.35,0.877,6.53,NA
2003-05-03,17:00:40,18.55,0.473,68.2,6.37,0.877,6.53,NA
2003-05-03,17:15:40,18.57,0.473,68.5,6.41,0.876,6.53,NA
2003-05-03,17:30:40,18.58,0.473,68.8,6.43,0.875,6.53,NA
2003-05-03,17:45:40,18.57,0.473,69,6.45,0.875,6.53,NA
2003-05-03,18:00:40,18.55,0.473,69.1,6.46,0.874,6.53,NA
2003-05-03,18:15:40,18.53,0.473,69.2,6.47,0.873,6.53,NA
2003-05-03,18:30:40,18.51,0.473,69.3,6.48,0.872,6.54,NA
2003-05-03,18:45:40,18.47,0.473,69.2,6.48,0.872,6.54,NA
2003-05-03,19:00:40,18.43,0.473,69,6.47,0.872,6.54,NA
2003-05-03,19:15:40,18.38,0.474,68.8,6.45,0.871,6.54,NA
2003-05-03,19:30:40,18.33,0.474,68.5,6.44,0.87,6.53,NA
2003-05-03,19:45:40,18.27,0.474,68.2,6.41,0.87,6.53,NA
2003-05-03,20:00:40,18.21,0.474,67.8,6.39,0.869,6.53,NA
2003-05-03,20:15:40,18.15,0.474,67.4,6.36,0.869,6.53,NA
2003-05-03,20:30:40,18.08,0.474,67,6.32,0.868,6.53,NA
2003-05-03,20:45:40,18.01,0.475,66.5,6.28,0.868,6.53,NA
2003-05-03,21:00:40,17.93,0.474,66,6.25,0.867,6.53,NA
2003-05-03,21:15:40,17.85,0.475,65.4,6.2,0.867,6.52,NA
2003-05-03,21:30:40,17.77,0.475,64.8,6.15,0.866,6.52,NA
2003-05-03,21:45:40,17.69,0.475,64.2,6.11,0.865,6.52,NA
2003-05-03,22:00:40,17.61,0.475,63.5,6.05,0.865,6.52,NA
2003-05-03,22:15:40,17.52,0.475,62.8,6,0.864,6.52,NA
2003-05-03,22:30:40,17.43,0.476,62.1,5.94,0.864,6.51,NA
2003-05-03,22:45:40,17.34,0.476,61.5,5.89,0.863,6.51,NA
2003-05-03,23:00:40,17.25,0.476,60.8,5.84,0.862,6.51,NA
2003-05-03,23:15:40,17.15,0.476,60.2,5.79,0.862,6.51,NA
2003-05-03,23:30:40,17.06,0.476,59.5,5.74,0.861,6.5,NA
2003-05-03,23:45:40,16.96,0.476,58.7,5.67,0.861,6.5,NA
2003-05-04,0:00:40,16.87,0.477,58.1,5.62,0.86,6.5,NA
2003-05-04,0:15:40,16.77,0.477,57.4,5.57,0.86,6.5,NA
2003-05-04,0:30:40,16.67,0.477,56.8,5.52,0.859,6.49,NA
2003-05-04,0:45:40,16.58,0.477,56.1,5.46,0.858,6.49,NA
2003-05-04,1:00:40,16.47,0.477,55.4,5.41,0.857,6.49,NA
2003-05-04,1:15:40,16.37,0.477,54.8,5.36,0.857,6.49,NA
2003-05-04,1:30:40,16.27,0.478,54.1,5.3,0.856,6.49,NA
2003-05-04,1:45:40,16.17,0.478,53.5,5.25,0.856,6.48,NA
2003-05-04,2:00:40,16.06,0.478,52.9,5.21,0.856,6.48,NA
2003-05-04,2:15:40,15.96,0.478,52.3,5.16,0.855,6.48,NA
2003-05-04,2:30:40,15.86,0.478,51.7,5.12,0.855,6.48,NA
2003-05-04,2:45:40,15.76,0.478,51.2,5.07,0.854,6.48,NA
2003-05-04,3:00:40,15.66,0.478,50.6,5.03,0.853,6.47,NA
2003-05-04,3:15:40,15.55,0.478,50.1,4.98,0.853,6.47,NA
2003-05-04,3:30:40,15.45,0.479,49.6,4.94,0.852,6.47,NA
2003-05-04,3:45:40,15.35,0.479,49,4.9,0.851,6.47,NA
2003-05-04,4:00:40,15.25,0.479,48.6,4.87,0.851,6.47,NA
2003-05-04,4:15:40,15.15,0.479,48.3,4.84,0.85,6.46,NA
2003-05-04,4:30:40,15.05,0.479,47.8,4.8,0.85,6.46,NA
2003-05-04,4:45:40,14.95,0.48,47.3,4.77,0.85,6.46,NA
2003-05-04,5:00:40,14.85,0.48,47,4.74,0.849,6.46,NA
2003-05-04,5:15:40,14.75,0.48,46.6,4.72,0.848,6.46,NA
2003-05-04,5:30:40,14.65,0.48,46.3,4.7,0.847,6.46,NA
2003-05-04,5:45:40,14.55,0.48,45.9,4.67,0.847,6.46,NA
2003-05-04,6:00:40,14.46,0.48,45.6,4.65,0.847,6.46,NA
2003-05-04,6:15:40,14.36,0.48,45.4,4.63,0.845,6.45,NA
2003-05-04,6:30:40,14.28,0.48,45.1,4.62,0.845,6.45,NA
2003-05-04,6:45:40,14.19,0.48,45,4.61,0.844,6.45,NA
2003-05-04,7:00:40,14.12,0.481,44.8,4.6,0.844,6.45,NA
2003-05-04,7:15:40,14.05,0.481,44.7,4.59,0.843,6.45,NA
2003-05-04,7:30:40,14,0.481,44.6,4.59,0.843,6.45,NA
2003-05-04,7:45:40,13.95,0.481,44.5,4.59,0.842,6.45,NA
2003-05-04,8:00:40,13.91,0.481,44.6,4.6,0.841,6.45,NA
2003-05-04,8:15:40,13.88,0.481,44.7,4.61,0.839,6.45,NA
2003-05-04,8:30:40,13.87,0.481,44.8,4.63,0.838,6.45,NA
2003-05-04,8:45:40,13.89,0.482,45.1,4.66,0.837,6.45,NA
2003-05-04,9:00:40,13.92,0.482,45.4,4.68,0.837,6.45,NA
2003-05-04,9:15:40,13.98,0.482,45.9,4.73,0.836,6.45,NA
2003-05-04,9:30:40,14.05,0.482,46.4,4.77,0.835,6.45,NA
2003-05-04,9:45:40,14.14,0.482,46.9,4.81,0.835,6.45,NA
2003-05-04,10:00:40,14.24,0.482,47.5,4.87,0.834,6.46,NA
2003-05-04,10:15:40,14.35,0.482,48.1,4.91,0.834,6.46,NA
2003-05-04,10:30:40,14.48,0.482,48.8,4.97,0.833,6.46,NA
2003-05-04,10:45:40,14.61,0.483,49.5,5.02,0.833,6.46,NA
2003-05-04,11:00:40,14.76,0.482,50.2,5.08,0.832,6.46,NA
2003-05-04,11:15:40,14.92,0.482,50.9,5.14,0.832,6.47,NA
2003-05-04,11:30:40,15.09,0.483,51.7,5.19,0.831,6.47,NA
2003-05-04,11:45:40,15.24,0.483,52.6,5.27,0.831,6.47,NA
2003-05-04,12:00:40,15.4,0.483,53.3,5.32,0.83,6.47,NA
2003-05-04,12:15:40,15.54,0.483,54.2,5.39,0.83,6.48,NA
2003-05-04,12:30:40,15.68,0.483,55.1,5.46,0.829,6.48,NA
2003-05-04,12:45:40,15.81,0.483,55.9,5.53,0.829,6.48,NA
2003-05-04,13:00:40,15.96,0.484,56.7,5.6,0.829,6.49,NA
2003-05-04,13:15:40,16.07,0.483,57.6,5.67,0.828,6.49,NA
2003-05-04,13:30:40,16.18,0.484,58.4,5.73,0.827,6.5,NA
2003-05-04,13:45:40,16.33,0.484,59.3,5.81,0.827,6.5,NA
2003-05-04,14:00:40,16.51,0.484,60.3,5.88,0.827,6.5,NA
2003-05-04,14:15:40,16.69,0.484,61.3,5.96,0.826,6.51,NA
2003-05-04,14:30:40,16.86,0.484,62.2,6.02,0.826,6.51,NA
2003-05-04,14:45:40,17.02,0.484,63.1,6.09,0.825,6.52,NA
2003-05-04,15:00:40,17.15,0.484,63.9,6.15,0.825,6.52,NA
2003-05-04,15:15:40,17.24,0.484,64.6,6.2,0.825,6.52,NA
2003-05-04,15:30:40,17.29,0.484,65.2,6.25,0.824,6.53,NA
2003-05-04,15:45:40,17.37,0.484,65.8,6.3,0.824,6.53,NA
2003-05-04,16:00:40,17.45,0.484,66.4,6.35,0.824,6.53,NA
2003-05-04,16:15:40,17.53,0.484,67.1,6.4,0.823,6.54,NA
2003-05-04,16:30:40,17.6,0.485,67.6,6.45,0.823,6.54,NA
2003-05-04,16:45:40,17.64,0.485,68,6.48,0.823,6.54,NA
2003-05-04,17:00:40,17.68,0.485,68.4,6.51,0.823,6.54,NA
2003-05-04,17:15:40,17.7,0.485,68.7,6.54,0.822,6.54,NA
2003-05-04,17:30:40,17.72,0.485,69,6.56,0.822,6.55,NA
2003-05-04,17:45:40,17.73,0.485,69.2,6.58,0.822,6.55,NA
2003-05-04,18:00:40,17.74,0.485,69.4,6.6,0.821,6.55,NA
2003-05-04,18:15:40,17.73,0.485,69.5,6.61,0.821,6.55,NA
2003-05-04,18:30:40,17.72,0.485,69.5,6.61,0.82,6.55,NA
2003-05-04,18:45:40,17.7,0.485,69.5,6.61,0.82,6.55,NA
2003-05-04,19:00:40,17.67,0.486,69.4,6.6,0.82,6.55,NA
2003-05-04,19:15:40,17.64,0.486,69.2,6.59,0.819,6.55,NA
2003-05-04,19:30:40,17.59,0.486,69,6.58,0.818,6.55,NA
2003-05-04,19:45:40,17.54,0.486,68.7,6.55,0.818,6.55,NA
2003-05-04,20:00:40,17.49,0.486,68.4,6.53,0.818,6.55,NA
2003-05-04,20:15:40,17.44,0.486,67.9,6.5,0.817,6.55,NA
2003-05-04,20:30:40,17.37,0.486,67.5,6.46,0.817,6.54,NA
2003-05-04,20:45:40,17.32,0.487,67.1,6.43,0.816,6.54,NA
2003-05-04,21:00:40,17.25,0.487,66.5,6.39,0.816,6.54,NA
2003-05-04,21:15:40,17.19,0.487,66,6.35,0.816,6.54,NA
2003-05-04,21:30:40,17.12,0.487,65.5,6.31,0.815,6.54,NA
2003-05-04,21:45:40,17.05,0.487,64.9,6.26,0.815,6.54,NA
2003-05-04,22:00:40,16.98,0.487,64.4,6.22,0.814,6.53,NA
2003-05-04,22:15:40,16.91,0.487,63.7,6.17,0.813,6.53,NA
2003-05-04,22:30:40,16.83,0.487,63.1,6.11,0.812,6.53,NA
2003-05-04,22:45:40,16.75,0.487,62.5,6.07,0.81,6.53,NA
2003-05-04,23:00:40,16.67,0.487,61.8,6.01,0.81,6.52,NA
2003-05-04,23:15:40,16.59,0.488,61.2,5.96,0.809,6.52,NA
2003-05-04,23:30:40,16.5,0.501,60.6,5.91,0.808,6.52,NA
2003-05-04,23:45:40,16.42,0.488,60,5.86,0.807,6.52,NA
2003-05-05,0:00:40,16.33,0.488,59.4,5.81,0.806,6.52,NA
2003-05-05,0:15:40,16.25,0.488,58.8,5.77,0.806,6.51,NA
2003-05-05,0:30:40,16.16,0.488,58.2,5.71,0.805,6.51,NA
2003-05-05,0:45:40,16.07,0.488,57.6,5.67,0.804,6.51,NA
2003-05-05,1:00:40,15.98,0.488,57,5.62,0.804,6.51,NA
2003-05-05,1:15:40,15.89,0.488,56.4,5.57,0.804,6.5,NA
2003-05-05,1:30:40,15.8,0.488,55.8,5.53,0.803,6.5,NA
2003-05-05,1:45:40,15.71,0.489,55.1,5.47,0.802,6.5,NA
2003-05-05,2:00:40,15.62,0.489,54.6,5.42,0.802,6.5,NA
2003-05-05,2:15:40,15.53,0.489,54,5.38,0.801,6.49,NA
2003-05-05,2:30:40,15.44,0.489,53.5,5.34,0.801,6.49,NA
2003-05-05,2:45:40,15.35,0.489,53,5.3,0.8,6.49,NA
2003-05-05,3:00:40,15.25,0.489,52.5,5.26,0.798,6.49,NA
2003-05-05,3:15:40,15.16,0.489,52,5.22,0.797,6.49,NA
2003-05-05,3:30:40,15.07,0.489,51.5,5.18,0.795,6.48,NA
2003-05-05,3:45:40,14.98,0.489,51.1,5.15,0.794,6.48,NA
2003-05-05,4:00:40,14.89,0.489,50.7,5.12,0.793,6.48,NA
2003-05-05,4:15:40,14.79,0.49,50.3,5.09,0.792,6.48,NA
2003-05-05,4:30:40,14.7,0.49,49.9,5.06,0.791,6.48,NA
2003-05-05,4:45:40,14.61,0.49,49.5,5.02,0.79,6.48,NA
2003-05-05,5:00:40,14.52,0.49,49.1,5,0.789,6.47,NA
2003-05-05,5:15:40,14.43,0.491,48.7,4.97,0.787,6.47,NA
2003-05-05,5:30:40,14.33,0.491,48.4,4.95,0.786,6.47,NA
2003-05-05,5:45:40,14.24,0.491,48.1,4.92,0.783,6.47,NA
2003-05-05,6:00:40,14.15,0.491,47.8,4.91,0.781,6.47,NA
2003-05-05,6:15:40,14.07,0.491,47.7,4.9,0.78,6.47,NA
2003-05-05,6:30:40,13.98,0.491,47.4,4.88,0.778,6.47,NA
2003-05-05,6:45:40,13.91,0.491,47.3,4.88,0.777,6.46,NA
2003-05-05,7:00:40,13.84,0.491,47.1,4.87,0.776,6.46,NA
2003-05-05,7:15:40,13.78,0.491,47.1,4.87,0.776,6.46,NA
2003-05-05,7:30:40,13.73,0.491,47,4.87,0.775,6.46,NA
2003-05-05,7:45:40,13.69,0.491,47,4.87,0.775,6.46,NA
2003-05-05,8:00:40,13.66,0.491,47,4.87,0.775,6.46,NA
2003-05-05,8:15:40,13.65,0.491,47.1,4.89,0.775,6.46,NA
2003-05-05,8:30:40,13.65,0.491,47.3,4.9,0.775,6.46,NA
2003-05-05,8:45:40,13.67,0.491,47.5,4.93,0.775,6.46,NA
2003-05-05,9:00:40,13.71,0.491,47.8,4.95,0.775,6.46,NA
2003-05-05,9:15:40,13.77,0.491,48.3,4.99,0.775,6.46,NA
2003-05-05,9:30:40,13.85,0.491,48.6,5.02,0.774,6.46,NA
2003-05-05,9:45:40,13.95,0.491,49.1,5.06,0.774,6.46,NA
2003-05-05,10:00:40,14.06,0.491,49.7,5.11,0.774,6.47,NA
2003-05-05,10:15:40,14.17,0.491,50.3,5.15,0.774,6.47,NA
2003-05-05,10:30:40,14.3,0.491,50.9,5.21,0.775,6.47,NA
2003-05-05,10:45:40,14.44,0.491,51.6,5.26,0.774,6.47,NA
2003-05-05,11:00:40,14.59,0.491,52.3,5.32,0.775,6.47,NA
2003-05-05,11:15:40,14.74,0.491,53,5.37,0.775,6.48,NA
2003-05-05,11:30:40,14.9,0.492,53.9,5.44,0.775,6.48,NA
2003-05-05,11:45:40,15.02,0.492,54.6,5.5,0.774,6.48,NA
2003-05-05,12:00:40,15.16,0.492,55.4,5.56,0.775,6.48,NA
2003-05-05,12:15:40,15.29,0.492,56.3,5.63,0.774,6.49,NA
2003-05-05,12:30:40,15.44,0.491,57.1,5.7,0.775,6.49,NA
2003-05-05,12:45:40,15.59,0.492,58,5.77,0.774,6.49,NA
2003-05-05,13:00:40,15.75,0.492,58.9,5.84,0.774,6.5,NA
2003-05-05,13:15:40,15.88,0.492,59.8,5.91,0.774,6.5,NA
2003-05-05,13:30:40,16,0.492,60.6,5.98,0.775,6.51,NA
2003-05-05,13:45:40,16.11,0.492,61.5,6.05,0.774,6.51,NA
2003-05-05,14:00:40,16.23,0.492,62.3,6.11,0.774,6.51,NA
2003-05-05,14:15:40,16.35,0.492,63.2,6.18,0.773,6.52,NA
2003-05-05,14:30:40,16.47,0.492,64,6.25,0.773,6.52,NA
2003-05-05,14:45:40,16.59,0.492,64.9,6.32,0.773,6.52,NA
2003-05-05,15:00:40,16.7,0.493,65.7,6.38,0.773,6.53,NA
2003-05-05,15:15:40,16.8,0.492,66.5,6.44,0.773,6.53,NA
2003-05-05,15:30:40,16.87,0.493,67.1,6.5,0.773,6.53,NA
2003-05-05,15:45:40,16.95,0.493,67.7,6.55,0.772,6.54,NA
2003-05-05,16:00:40,17.02,0.493,68.3,6.59,0.772,6.54,NA
2003-05-05,16:15:40,17.08,0.493,68.9,6.64,0.772,6.54,NA
2003-05-05,16:30:40,17.13,0.493,69.4,6.69,0.772,6.55,NA
2003-05-05,16:45:40,17.17,0.493,69.9,6.73,0.772,6.55,NA
2003-05-05,17:00:40,17.2,0.493,70.3,6.76,0.772,6.55,NA
2003-05-05,17:15:40,17.21,0.493,70.7,6.79,0.771,6.55,NA
2003-05-05,17:30:40,17.23,0.493,70.9,6.81,0.772,6.55,NA
2003-05-05,17:45:40,17.24,0.493,71.2,6.84,0.771,6.56,NA
2003-05-05,18:00:40,17.25,0.493,71.4,6.86,0.771,6.56,NA
2003-05-05,18:15:40,17.25,0.493,71.6,6.87,0.77,6.56,NA
2003-05-05,18:30:40,17.24,0.493,71.6,6.88,0.77,6.56,NA
2003-05-05,18:45:40,17.23,0.493,71.6,6.88,0.769,6.56,NA
2003-05-05,19:00:40,17.2,0.493,71.5,6.87,0.77,6.56,NA
2003-05-05,19:15:40,17.18,0.493,71.3,6.86,0.769,6.56,NA
2003-05-05,19:30:40,17.15,0.493,71.2,6.85,0.769,6.56,NA
2003-05-05,19:45:40,17.12,0.493,70.9,6.83,0.769,6.56,NA
2003-05-05,20:00:40,17.1,0.493,70.6,6.8,0.768,6.56,NA
2003-05-05,20:15:40,17.07,0.493,70.3,6.78,0.768,6.55,NA
2003-05-05,20:30:40,17.03,0.494,69.9,6.75,0.767,6.55,NA
2003-05-05,20:45:40,16.99,0.494,69.6,6.72,0.765,6.55,NA
2003-05-05,21:00:40,16.96,0.494,69.1,6.68,0.764,6.55,NA
2003-05-05,21:15:40,16.92,0.494,68.7,6.65,0.763,6.55,NA
2003-05-05,21:30:40,16.89,0.494,68.4,6.62,0.762,6.55,NA
2003-05-05,21:45:40,16.85,0.494,67.9,6.57,0.762,6.55,NA
2003-05-05,22:00:40,16.81,0.494,67.4,6.53,0.761,6.54,NA
2003-05-05,22:15:40,16.76,0.494,67,6.5,0.76,6.54,NA
2003-05-05,22:30:40,16.71,0.494,66.5,6.45,0.759,6.54,NA
2003-05-05,22:45:40,16.65,0.494,66,6.41,0.757,6.54,NA
2003-05-05,23:00:40,16.6,0.494,65.5,6.37,0.757,6.54,NA
2003-05-05,23:15:40,16.54,0.495,64.9,6.33,0.757,6.53,NA
2003-05-05,23:30:40,16.48,0.495,64.4,6.28,0.756,6.53,NA
2003-05-05,23:45:40,16.43,0.495,63.8,6.23,0.756,6.53,NA
2003-05-06,0:00:40,16.37,0.495,63.2,6.18,0.755,6.53,NA
2003-05-06,0:15:40,16.31,0.495,62.6,6.13,0.755,6.53,NA
2003-05-06,0:30:40,16.25,0.495,62,6.08,0.754,6.52,NA
2003-05-06,0:45:40,16.18,0.495,61.4,6.03,0.754,6.52,NA
2003-05-06,1:00:40,16.13,0.495,60.9,5.99,0.754,6.52,NA
2003-05-06,1:15:40,16.06,0.495,60.3,5.94,0.753,6.52,NA
2003-05-06,1:30:40,16,0.495,59.8,5.89,0.753,6.52,NA
2003-05-06,1:45:40,15.93,0.495,59.2,5.84,0.753,6.51,NA
2003-05-06,2:00:40,15.87,0.495,58.6,5.8,0.752,6.51,NA
2003-05-06,2:15:40,15.81,0.495,58.1,5.75,0.751,6.51,NA
2003-05-06,2:30:40,15.74,0.496,57.5,5.7,0.749,6.51,NA
2003-05-06,2:45:40,15.68,0.495,57,5.66,0.748,6.51,NA
2003-05-06,3:00:40,15.61,0.495,56.5,5.62,0.747,6.5,NA
2003-05-06,3:15:40,15.55,0.495,56,5.58,0.746,6.5,NA
2003-05-06,3:30:40,15.48,0.496,55.6,5.54,0.746,6.5,NA
2003-05-06,3:45:40,15.41,0.496,55.1,5.5,0.746,6.5,NA
2003-05-06,4:00:40,15.35,0.496,54.7,5.46,0.745,6.5,NA
2003-05-06,4:15:40,15.29,0.496,54.2,5.42,0.744,6.5,NA
2003-05-06,4:30:40,15.22,0.496,53.8,5.39,0.742,6.49,NA
2003-05-06,4:45:40,15.16,0.496,53.3,5.35,0.74,6.49,NA
2003-05-06,5:00:40,15.09,0.496,53,5.33,0.738,6.49,NA
2003-05-06,5:15:40,15.02,0.496,52.6,5.29,0.736,6.49,NA
2003-05-06,5:30:40,14.96,0.497,52.4,5.28,0.734,6.49,NA
2003-05-06,5:45:40,14.89,0.497,52.1,5.26,0.731,6.49,NA
2003-05-06,6:00:40,14.83,0.497,51.8,5.23,0.73,6.48,NA
2003-05-06,6:15:40,14.77,0.497,51.5,5.21,0.729,6.48,NA
2003-05-06,6:30:40,14.71,0.497,51.3,5.2,0.727,6.48,NA
2003-05-06,6:45:40,14.66,0.497,51.1,5.18,0.726,6.48,NA
2003-05-06,7:00:40,14.61,0.497,50.9,5.17,0.726,6.48,NA
2003-05-06,7:15:40,14.56,0.497,50.7,5.16,0.725,6.48,NA
2003-05-06,7:30:40,14.52,0.497,50.6,5.15,0.725,6.48,NA
2003-05-06,7:45:40,14.47,0.498,50.4,5.14,0.725,6.48,NA
2003-05-06,8:00:40,14.43,0.498,50.2,5.12,0.725,6.48,NA
2003-05-06,8:15:40,14.38,0.498,50,5.11,0.725,6.48,NA
2003-05-06,8:30:40,14.35,0.498,50,5.1,0.725,6.48,NA
2003-05-06,8:45:40,14.31,0.498,49.9,5.1,0.725,6.48,NA
2003-05-06,9:00:40,14.29,0.498,49.9,5.1,0.726,6.48,NA
2003-05-06,9:15:40,14.26,0.498,49.8,5.1,0.726,6.48,NA
2003-05-06,9:30:40,14.22,0.498,49.9,5.11,0.726,6.48,NA
2003-05-06,9:45:40,14.19,0.498,49.8,5.11,0.727,6.48,NA
2003-05-06,10:00:40,14.16,0.498,49.9,5.12,0.727,6.48,NA
2003-05-06,10:15:40,14.13,0.498,49.9,5.12,0.727,6.48,NA
2003-05-06,10:30:40,14.12,0.498,50.1,5.14,0.727,6.48,NA
2003-05-06,10:45:40,14.11,0.498,50.2,5.16,0.727,6.48,NA
2003-05-06,11:00:40,14.1,0.498,50.4,5.18,0.728,6.48,NA
2003-05-06,11:15:40,14.09,0.498,50.6,5.2,0.728,6.48,NA
2003-05-06,11:30:40,14.07,0.498,50.7,5.21,0.728,6.48,NA
2003-05-06,11:45:40,14.05,0.498,50.8,5.22,0.729,6.48,NA
2003-05-06,12:00:40,14.04,0.498,51,5.24,0.729,6.48,NA
2003-05-06,12:15:40,14.03,0.498,51.2,5.27,0.729,6.48,NA
2003-05-06,12:30:40,14.04,0.498,51.5,5.3,0.73,6.48,NA
2003-05-06,12:45:40,14.05,0.498,51.9,5.33,0.73,6.48,NA
2003-05-06,13:00:40,14.06,0.498,52.2,5.37,0.73,6.48,NA
2003-05-06,13:15:40,14.07,0.498,52.5,5.39,0.73,6.48,NA
2003-05-06,13:30:40,14.06,0.497,52.7,5.42,0.73,6.48,NA
2003-05-06,13:45:40,14.06,0.498,52.7,5.42,0.731,6.48,NA
2003-05-06,14:00:40,14.05,0.498,53,5.45,0.731,6.48,NA
2003-05-06,14:15:40,14.05,0.497,53.2,5.47,0.731,6.48,NA
2003-05-06,14:30:40,14.06,0.498,53.6,5.5,0.731,6.48,NA
2003-05-06,14:45:40,14.07,0.497,53.8,5.53,0.731,6.49,NA
2003-05-06,15:00:40,14.08,0.497,54,5.55,0.731,6.49,NA
2003-05-06,15:15:40,14.08,0.497,54.2,5.56,0.731,6.49,NA
2003-05-06,15:30:40,14.09,0.497,54.4,5.58,0.731,6.49,NA
2003-05-06,15:45:40,14.1,0.497,54.6,5.6,0.731,6.49,NA
2003-05-06,16:00:40,14.11,0.497,54.8,5.63,0.731,6.49,NA
2003-05-06,16:15:40,14.12,0.497,55.1,5.65,0.731,6.49,NA
2003-05-06,16:30:40,14.13,0.498,55.2,5.67,0.731,6.49,NA
2003-05-06,16:45:40,14.14,0.497,55.5,5.69,0.731,6.49,NA
2003-05-06,17:00:40,14.16,0.497,55.7,5.71,0.731,6.49,NA
2003-05-06,17:15:40,14.18,0.498,56,5.74,0.731,6.49,NA
2003-05-06,17:30:40,14.18,0.497,56.1,5.75,0.731,6.49,NA
2003-05-06,17:45:40,14.18,0.498,56.2,5.76,0.731,6.49,NA
2003-05-06,18:00:40,14.19,0.498,56.3,5.77,0.731,6.49,NA
2003-05-06,18:15:40,14.19,0.498,56.4,5.78,0.73,6.5,NA
2003-05-06,18:30:40,14.2,0.498,56.5,5.79,0.73,6.5,NA
2003-05-06,18:45:40,14.19,0.498,56.6,5.8,0.73,6.5,NA
2003-05-06,19:00:40,14.19,0.498,56.6,5.8,0.73,6.5,NA
2003-05-06,19:15:40,14.18,0.498,56.5,5.8,0.729,6.5,NA
2003-05-06,19:30:40,14.17,0.498,56.5,5.8,0.729,6.5,NA
2003-05-06,19:45:40,14.16,0.498,56.5,5.79,0.729,6.49,NA
2003-05-06,20:00:40,14.15,0.498,56.2,5.76,0.728,6.49,NA
2003-05-06,20:15:40,14.14,0.498,56.3,5.78,0.728,6.49,NA
2003-05-06,20:30:40,14.13,0.498,56.2,5.77,0.727,6.49,NA
2003-05-06,20:45:40,14.12,0.498,56.1,5.76,0.727,6.49,NA
2003-05-06,21:00:40,14.1,0.498,56,5.75,0.727,6.49,NA
2003-05-06,21:15:40,14.09,0.498,55.9,5.74,0.727,6.49,NA
2003-05-06,21:30:40,14.08,0.498,55.7,5.73,0.726,6.49,NA
2003-05-06,21:45:40,14.07,0.499,55.6,5.71,0.726,6.49,NA
2003-05-06,22:00:40,14.06,0.498,55.4,5.7,0.726,6.49,NA
2003-05-06,22:15:40,14.04,0.498,55.3,5.68,0.726,6.49,NA
2003-05-06,22:30:40,14.03,0.499,55.1,5.66,0.726,6.49,NA
2003-05-06,22:45:40,14.02,0.499,54.9,5.65,0.725,6.49,NA
2003-05-06,23:00:40,14.01,0.499,54.7,5.63,0.726,6.49,NA
2003-05-06,23:15:40,13.99,0.499,54.5,5.61,0.725,6.49,NA
2003-05-06,23:30:40,13.98,0.499,54.3,5.59,0.725,6.49,NA
2003-05-06,23:45:40,13.97,0.499,54.1,5.57,0.725,6.48,NA
2003-05-07,0:00:40,13.96,0.499,53.9,5.55,0.725,6.48,NA
2003-05-07,0:15:40,13.94,0.499,53.6,5.53,0.725,6.48,NA
2003-05-07,0:30:40,13.93,0.499,53.4,5.5,0.725,6.48,NA
2003-05-07,0:45:40,13.92,0.499,53.1,5.48,0.724,6.48,NA
2003-05-07,1:00:40,13.91,0.499,52.9,5.45,0.724,6.48,NA
2003-05-07,1:15:40,13.89,0.499,52.6,5.43,0.724,6.48,NA
2003-05-07,1:30:40,13.88,0.499,52.4,5.4,0.723,6.48,NA
2003-05-07,1:45:40,13.87,0.5,52.1,5.38,0.723,6.48,NA
2003-05-07,2:00:40,13.85,0.499,51.9,5.35,0.723,6.48,NA
2003-05-07,2:15:40,13.84,0.5,51.6,5.33,0.722,6.47,NA
2003-05-07,2:30:40,13.82,0.5,51.4,5.31,0.722,6.47,NA
2003-05-07,2:45:40,13.81,0.5,51.1,5.28,0.722,6.47,NA
2003-05-07,3:00:40,13.79,0.5,50.9,5.26,0.722,6.47,NA
2003-05-07,3:15:40,13.78,0.5,50.7,5.24,0.722,6.47,NA
2003-05-07,3:30:40,13.77,0.5,50.4,5.22,0.722,6.47,NA
2003-05-07,3:45:40,13.75,0.5,50.2,5.2,0.721,6.47,NA
2003-05-07,4:00:40,13.74,0.5,50,5.18,0.721,6.47,NA
2003-05-07,4:15:40,13.72,0.5,49.8,5.16,0.721,6.47,NA
2003-05-07,4:30:40,13.71,0.501,49.5,5.13,0.721,6.47,NA
2003-05-07,4:45:40,13.69,0.501,49.3,5.11,0.721,6.47,NA
2003-05-07,5:00:40,13.68,0.501,49,5.08,0.721,6.46,NA
2003-05-07,5:15:40,13.66,0.501,48.8,5.06,0.721,6.46,NA
2003-05-07,5:30:40,13.65,0.501,48.6,5.04,0.72,6.46,NA
2003-05-07,5:45:40,13.64,0.501,48.4,5.02,0.721,6.46,NA
2003-05-07,6:00:40,13.62,0.501,48.2,5,0.721,6.46,NA
2003-05-07,6:15:40,13.61,0.501,48,4.99,0.721,6.46,NA
2003-05-07,6:30:40,13.61,0.501,47.9,4.97,0.72,6.46,NA
2003-05-07,6:45:40,13.6,0.502,47.8,4.96,0.72,6.46,NA
2003-05-07,7:00:40,13.6,0.501,47.7,4.95,0.72,6.46,NA
2003-05-07,7:15:40,13.6,0.502,47.6,4.94,0.719,6.46,NA
2003-05-07,7:30:40,13.62,0.502,47.5,4.93,0.719,6.46,NA
2003-05-07,7:45:40,13.63,0.502,47.6,4.94,0.719,6.46,NA
2003-05-07,8:00:40,13.65,0.502,47.6,4.94,0.718,6.46,NA
2003-05-07,8:15:40,13.68,0.502,47.7,4.94,0.718,6.46,NA
2003-05-07,8:30:40,13.71,0.502,47.9,4.96,0.718,6.46,NA
2003-05-07,8:45:40,13.77,0.502,48,4.97,0.718,6.46,NA
2003-05-07,9:00:40,13.83,0.502,48.3,4.99,0.717,6.46,NA
2003-05-07,9:15:40,13.92,0.502,48.7,5.02,0.718,6.46,NA
2003-05-07,9:30:40,14.01,0.502,49,5.04,0.717,6.46,NA
2003-05-07,9:45:40,14.11,0.502,49.3,5.06,0.717,6.46,NA
2003-05-07,10:00:40,14.25,0.502,49.9,5.1,0.717,6.47,NA
2003-05-07,10:15:40,14.39,0.503,50.3,5.13,0.717,6.47,NA
2003-05-07,10:30:40,14.55,0.502,50.8,5.17,0.716,6.47,NA
2003-05-07,10:45:40,14.71,0.503,51.4,5.21,0.716,6.47,NA
2003-05-07,11:00:40,14.88,0.503,51.9,5.24,0.716,6.47,NA
2003-05-07,11:15:40,15.07,0.503,52.6,5.29,0.716,6.48,NA
2003-05-07,11:30:40,15.26,0.503,53.2,5.33,0.715,6.48,NA
2003-05-07,11:45:40,15.43,0.503,54,5.38,0.715,6.48,NA
2003-05-07,12:00:40,15.62,0.503,54.6,5.43,0.714,6.48,NA
2003-05-07,12:15:40,15.74,0.503,55.2,5.47,0.715,6.49,NA
2003-05-07,12:30:40,15.93,0.504,56,5.53,0.714,6.49,NA
2003-05-07,12:45:40,16.09,0.504,56.7,5.58,0.714,6.49,NA
2003-05-07,13:00:40,16.27,0.504,57.5,5.64,0.714,6.5,NA
2003-05-07,13:15:40,16.38,0.504,58.2,5.69,0.714,6.5,NA
2003-05-07,13:30:40,16.44,0.504,58.7,5.73,0.713,6.5,NA
2003-05-07,13:45:40,16.49,0.504,59.1,5.77,0.713,6.51,NA
2003-05-07,14:00:40,16.54,0.504,59.6,5.81,0.713,6.51,NA
2003-05-07,14:15:40,16.64,0.504,60.2,5.85,0.712,6.51,NA
2003-05-07,14:30:40,16.75,0.504,60.8,5.9,0.712,6.51,NA
2003-05-07,14:45:40,16.83,0.504,61.5,5.96,0.711,6.52,NA
2003-05-07,15:00:40,16.91,0.504,62.1,6,0.711,6.52,NA
2003-05-07,15:15:40,16.98,0.505,62.4,6.03,0.711,6.52,NA
2003-05-07,15:30:40,17.05,0.505,63.2,6.1,0.71,6.52,NA
2003-05-07,15:45:40,17.11,0.505,63.7,6.14,0.71,6.53,NA
2003-05-07,16:00:40,17.19,0.505,64.2,6.18,0.71,6.53,NA
2003-05-07,16:15:40,17.26,0.505,64.8,6.22,0.709,6.53,NA
2003-05-07,16:30:40,17.31,0.505,65.2,6.26,0.709,6.53,NA
2003-05-07,16:45:40,17.33,0.505,65.5,6.28,0.709,6.53,NA
2003-05-07,17:00:40,17.37,0.505,65,6.22,0.709,6.54,NA
2003-05-07,17:15:40,17.41,0.505,65.1,6.23,0.708,6.54,NA
2003-05-07,17:30:40,17.44,0.505,66,6.31,0.708,6.54,NA
2003-05-07,17:45:40,17.47,0.505,66.5,6.36,0.708,6.54,NA
2003-05-07,18:00:40,17.49,0.505,66.4,6.34,0.708,6.54,NA
2003-05-07,18:15:40,17.51,0.505,66.9,6.39,0.708,6.54,NA
2003-05-07,18:30:40,17.51,0.505,67,6.4,0.707,6.54,NA
2003-05-07,18:45:40,17.51,0.506,66.4,6.34,0.707,6.54,NA
2003-05-07,19:00:40,17.5,0.505,67,6.4,0.706,6.54,NA
2003-05-07,19:15:40,17.49,0.505,66.9,6.39,0.706,6.54,NA
2003-05-07,19:30:40,17.47,0.505,66.8,6.38,0.706,6.54,NA
2003-05-07,19:45:40,17.46,0.506,66.8,6.38,0.706,6.54,NA
2003-05-07,20:00:40,17.44,0.505,66.6,6.37,0.706,6.54,NA
2003-05-07,20:15:40,17.42,0.505,66.4,6.36,0.706,6.54,NA
2003-05-07,20:30:40,17.4,0.505,66.2,6.34,0.705,6.54,NA
2003-05-07,20:45:40,17.37,0.505,66,6.32,0.705,6.54,NA
2003-05-07,21:00:40,17.35,0.506,65.7,6.29,0.704,6.54,NA
2003-05-07,21:15:40,17.33,0.505,65.4,6.27,0.702,6.54,NA
2003-05-07,21:30:40,17.31,0.506,65,6.24,0.701,6.54,NA
2003-05-07,21:45:40,17.29,0.506,64.6,6.2,0.701,6.54,NA
2003-05-07,22:00:40,17.27,0.506,64.3,6.17,0.7,6.54,NA
2003-05-07,22:15:40,17.25,0.506,63.9,6.13,0.699,6.53,NA